CAPE
0 0 0 0 0 0 0 0 0 0 0 0 0 0 0 0 0 0 0 0 0 0 0 0 0 0 0 0 0 16 487 577 501 583 536 564 279 364 340 221 133 10 11
0 0 0 0 0 0 0 0 0 0 0 0 0 0 0 0 0 0 0 0 0 0 0 0 0 0 0 0 0 0 1 213 603 616 618 606 633 545 500 403 366 187 55
0 0 0 0 0 0 0 0 0 0 0 0 0 0 0 0 0 0 0 0 0 0 0 0 0 0 0 0 0 1 4 5 58 267 476 724 788 701 742 661 463 423 318
0 0 0 0 0 0 0 0 0 0 0 0 0 0 0 0 0 0 0 0 0 0 0 0 0 0 0 0 0 0 1 4 18 59 152 358 575 677 744 712 518 204 445
0 0 0 0 0 0 0 1 0 0 0 0 0 0 0 0 0 0 0 0 0 0 0 0 0 0 0 0 0 1 4 4 3 0 6 80 236 383 651 507 650 555 571
0 0 0 0 0 0 0 1 2 0 0 0 0 0 0 0 0 0 0 0 0 0 0 0 0 0 0 0 2 1 3 4 7 4 2 2 3 303 449 775 719 746 718
0 0 0 0 0 0 0 0 0 1 0 1 0 0 0 0 0 0 0 0 0 0 0 0 1 3 1 1 1 1 1 3 8 5 7 7 3 66 473 595 823 826 938
0 0 0 0 0 0 2 0 0 1 0 0 1 0 0 0 0 0 0 0 0 0 0 0 1 1 1 3 2 3 5 5 18 20 94 26 8 144 348 637 739 840 972
0 0 0 0 0 0 0 0 0 0 3 0 1 0 0 0 0 0 0 0 0 0 1 2 3 1 0 0 2 2 4 2 15 26 18 47 66 160 559 612 673 701 887
0 0 0 0 0 0 0 2 0 0 1 2 0 1 1 0 1 0 0 0 0 0 1 2 0 1 0 0 2 0 2 1 8 20 36 123 151 242 564 670 567 586 632
0 0 0 0 0 0 0 1 0 0 1 1 2 1 0 1 0 4 0 0 0 0 2 2 0 0 0 0 1 0 1 1 5 23 12 19 43 53 231 390 405 540 586
0 0 0 0 0 0 0 0 0 0 0 0 1 2 2 1 1 3 4 3 2 2 2 0 0 0 0 0 0 0 0 0 2 6 15 9 16 5 224 248 267 121 38
0 0 0 0 0 0 0 0 0 0 0 0 1 2 3 5 7 6 18 7 7 2 0 2 0 0 0 0 0 0 0 0 1 2 4 6 4 4 8 14 5 5 6
0 0 0 0 0 0 0 0 0 0 0 0 1 2 1 0 0 2 7 7 2 0 2 2 0 0 0 0 0 0 0 0 1 0 0 0 1 3 2 1 1 3 3
0 0 0 0 0 0 0 0 0 0 0 0 0 0 0 0 0 2 2 1 3 2 0 2 4 0 0 0 0 0 0 0 0 0 0 0 0 0 0 0 1 1 1
0 0 0 0 0 0 0 0 0 0 0 0 0 0 0 0 0 0 0 1 2 2 2 1 4 0 0 0 0 0 0 0 0 0 0 0 0 0 0 0 0 0 0
0 0 0 0 0 0 0 0 0 0 0 0 0 0 0 0 0 0 0 0 0 1 0 1 0 0 0 0 0 0 0 0 0 0 0 0 0 0 0 0 1 0 0
0 0 0 0 0 0 0 0 0 0 0 0 0 0 0 0 0 0 0 0 0 0 2 0 1 0 0 0 0 0 0 0 0 0 0 0 0 0 0 0 0 0 0
0 0 0 0 0 0 0 0 0 0 0 0 0 0 0 0 0 0 0 0 0 0 0 0 0 1 0 0 0 0 0 0 0 0 0 0 0 0 0 0 0 0 0
0 0 0 0 0 0 0 0 0 0 0 0 0 0 0 0 0 0 0 0 0 0 0 0 0 0 0 0 0 0 0 0 0 0 0 0 0 0 0 0 0 0 0
0 0 0 0 0 0 0 0 0 0 0 0 0 0 0 0 0 0 0 0 0 0 0 0 0 0 0 0 0 0 0 0 0 0 0 0 0 0 0 0 0 0 0
0 0 0 0 0 0 0 0 0 0 0 0 0 0 0 0 0 0 0 0 0 0 0 0 0 0 0 0 0 0 0 0 0 0 0 0 0 0 0 0 0 0 0
0 0 0 0 0 0 0 0 0 0 0 0 0 0 0 0 0 0 0 0 0 0 0 0 0 0 0 0 0 0 0 0 0 0 0 0 0 0 0 0 0 1 0
0 0 0 0 0 0 0 0 0 0 0 0 0 0 0 0 0 0 0 0 0 0 0 0 0 0 0 0 0 0 0 0 0 0 0 0 0 0 0 0 0 0 0
0 0 0 0 0 0 0 0 0 0 0 0 0 0 0 0 0 0 0 0 0 0 0 0 0 0 0 0 0 0 0 0 0 0 0 0 0 0 0 0 0 0 0
0 0 0 0 0 0 0 0 0 0 0 0 0 0 0 0 0 0 0 0 0 0 0 0 0 0 0 0 0 0 0 0 0 0 0 0 0 0 0 0 0 0 0
CIN
-0 -0 -0 -0 -0 -0 -0 -0 -0 -0 -0 -0 -0 -0 -0 -0 -0 -0 -0 -0 -0 -0 -0 -0 -0 -0 -0 -0 -0 -6 -1 -1 -1 -1 -1 -1 -5 -1 -0 -0 -9 -24 -65
-0 -0 -0 -0 -0 -0 -0 -0 -0 -0 -0 -0 -0 -0 -0 -0 -0 -0 -0 -0 -0 -0 -0 -0 -0 -0 -0 -0 -0 -0 -20 -4 -1 -1 -1 -1 -1 -2 -1 -1 -0 -2 -32
-0 -0 -0 -0 -0 -0 -0 -0 -0 -0 -0 -0 -0 -0 -0 -0 -0 -0 -0 -0 -0 -0 -0 -0 -0 -0 -0 -0 -0 -0 -0 -0 -49 -0 -1 -1 -0 -1 -2 -1 -1 -0 -0
-0 -0 -0 -0 -0 -0 -0 -0 -0 -0 -0 -0 -0 -0 -0 -0 -0 -0 -0 -0 -0 -0 -0 -0 -0 -0 -0 -0 -0 -0 -0 -0 -170 -95 -23 -0 -1 -1 -0 -0 -1 -0 -0
-0 -0 -0 -0 -0 -0 -0 -0 -0 -0 -0 -0 -0 -0 -0 -0 -0 -0 -0 -0 -0 -0 -0 -0 -0 -0 -0 -0 -0 -0 -0 -0 -0 -0 -89 -54 -1 -1 -0 -5 -0 -0 -0
-0 -0 -0 -0 -0 -0 -0 -0 -0 -0 -0 -0 -0 -0 -0 -0 -0 -0 -0 -0 -0 -0 -0 -0 -0 -0 -0 -0 -0 -0 -0 -0 -0 -0 -0 -0 -4 -0 -0 -0 -0 -1 -1
-0 -0 -0 -0 -0 -0 -0 -0 -1 -0 -0 -0 -0 -0 -0 -0 -0 -0 -0 -0 -0 -0 -0 -0 -0 -0 -0 -0 -0 -0 -0 -0 -0 -0 -0 -0 -0 -25 -0 -0 -0 -0 -0
-0 -0 -0 -0 -0 -0 -0 -0 -0 -1 -0 -0 -0 -0 -0 -0 -0 -0 -0 -0 -0 -0 -0 -0 -0 -2 -0 -0 -0 -0 -0 -0 -0 -0 -65 -8 -0 -4 -1 -0 -0 -0 -0
-0 -0 -0 -0 -0 -0 -0 -0 -0 -1 -0 -0 -2 -2 -0 -0 -0 -0 -0 -0 -0 -0 -0 -0 -0 -0 -0 -0 -0 -0 -0 -0 -0 -14 -1 -91 -24 -5 -3 -1 -0 -0 -0
-0 -0 -0 -0 -0 -0 -0 -1 -0 -0 -3 -0 -1 -4 -4 -2 -0 -0 -0 -0 -0 -0 -0 -3 -0 -0 -0 -0 -0 -0 -0 -0 -0 -0 -0 -34 -5 -15 -6 -0 -0 -2 -1
-0 -0 -0 -0 -0 -0 -0 -0 -1 -1 -3 -2 -2 -1 -1 -2 -0 -2 -0 -0 -0 -0 -2 -7 -0 -0 -0 -0 -0 -0 -0 -0 -0 -13 -19 -7 -0 -2 -23 -10 -6 -7 -7
-0 -0 -0 -0 -0 -0 -0 -0 -0 -2 -1 -2 -2 -3 -2 -0 -0 -2 -2 -0 -1 -1 -3 -0 -0 -0 -0 -0 -0 -0 -0 -0 -0 -0 -22 -0 -1 -32 -21 -3 -1 -6 -18
-0 -0 -0 -0 -0 -0 -0 -0 -0 -0 -3 -1 -4 -3 -2 -3 -0 -2 -0 -1 -0 -0 -0 -22 -0 -0 -0 -0 -0 -0 -0 -0 -0 -0 -0 -0 -0 -0 -30 -0 -0 -0 -0
-0 -0 -0 -0 -0 -0 -0 -0 -0 -0 -0 -2 -2 -1 -2 -2 -0 -1 -0 -0 -0 -0 -0 -0 -0 -0 -0 -0 -0 -0 -0 -0 -0 -0 -0 -0 -0 -0 -0 -0 -0 -0 -0
-0 -0 -0 -0 -0 -0 -0 -0 -0 -0 -0 -0 -0 -0 -0 -0 -0 -0 -0 -0 -0 -0 -0 -1 -3 -0 -0 -0 -0 -0 -0 -0 -0 -0 -0 -0 -0 -0 -0 -0 -0 -0 -0
-0 -0 -0 -0 -0 -0 -0 -0 -0 -0 -0 -0 -0 -0 -0 -0 -0 -0 -0 -0 -0 -0 -0 -0 -1 -0 -0 -0 -0 -0 -0 -0 -0 -0 -0 -0 -0 -0 -0 -0 -0 -0 -0
-0 -0 -0 -0 -0 -0 -0 -0 -0 -0 -0 -0 -0 -0 -0 -0 -0 -0 -0 -0 -0 -0 -0 -0 -0 -0 -0 -0 -0 -0 -0 -0 -0 -0 -0 -0 -0 -0 -0 -0 -0 -0 -0
-0 -0 -0 -0 -0 -0 -0 -0 -0 -0 -0 -0 -0 -0 -0 -0 -0 -0 -0 -0 -0 -0 -0 -0 -0 -0 -0 -0 -0 -0 -0 -0 -0 -0 -0 -0 -0 -0 -0 -0 -0 -0 -0
-0 -0 -0 -0 -0 -0 -0 -0 -0 -0 -0 -0 -0 -0 -0 -0 -0 -0 -0 -0 -0 -0 -0 -0 -0 -0 -0 -0 -0 -0 -0 -0 -0 -0 -0 -0 -0 -0 -0 -0 -0 -0 -0
-0 -0 -0 -0 -0 -0 -0 -0 -0 -0 -0 -0 -0 -0 -0 -0 -0 -0 -0 -0 -0 -0 -0 -0 -0 -0 -0 -0 -0 -0 -0 -0 -0 -0 -0 -0 -0 -0 -0 -0 -0 -0 -0
-0 -0 -0 -0 -0 -0 -0 -0 -0 -0 -0 -0 -0 -0 -0 -0 -0 -0 -0 -0 -0 -0 -0 -0 -0 -0 -0 -0 -0 -0 -0 -0 -0 -0 -0 -0 -0 -0 -0 -0 -0 -0 -0
-0 -0 -0 -0 -0 -0 -0 -0 -0 -0 -0 -0 -0 -0 -0 -0 -0 -0 -0 -0 -0 -0 -0 -0 -0 -0 -0 -0 -0 -0 -0 -0 -0 -0 -0 -0 -0 -0 -0 -0 -0 -0 -0
-0 -0 -0 -0 -0 -0 -0 -0 -0 -0 -0 -0 -0 -0 -0 -0 -0 -0 -0 -0 -0 -0 -0 -0 -0 -0 -0 -0 -0 -0 -0 -0 -0 -0 -0 -0 -0 -0 -0 -0 -0 -0 -0
-0 -0 -0 -0 -0 -0 -0 -0 -0 -0 -0 -0 -0 -0 -0 -0 -0 -0 -0 -0 -0 -0 -0 -0 -0 -0 -0 -0 -0 -0 -0 -0 -0 -0 -0 -0 -0 -0 -0 -0 -0 -0 -0
-0 -0 -0 -0 -0 -0 -0 -0 -0 -0 -0 -0 -0 -0 -0 -0 -0 -0 -0 -0 -0 -0 -0 -0 -0 -0 -0 -0 -0 -0 -0 -0 -0 -0 -0 -0 -0 -0 -0 -0 -0 -0 -0
-0 -0 -0 -0 -0 -0 -0 -0 -0 -0 -0 -0 -0 -0 -0 -0 -0 -0 -0 -0 -0 -0 -0 -0 -0 -0 -0 -0 -0 -0 -0 -0 -0 -0 -0 -0 -0 -0 -0 -0 -0 -0 -0
Wind_Speed
27 28 28 29 29 30 31 32 32 32 31 30 29 28 27 26 25 25 25 25 27 28 29 30 32 32 33 33 34 34 34 32 29 26 25 25 24 24 24 24 24 24 23
28 29 30 30 29 31 31 31 31 31 30 29 28 27 26 25 25 24 24 24 25 25 26 28 31 34 35 36 37 37 36 36 33 31 30 29 27 26 26 25 25 25 24
28 30 31 30 30 31 31 30 30 29 29 28 28 27 25 24 24 23 23 22 22 21 22 24 27 31 34 35 36 37 38 37 37 36 33 30 29 29 28 26 27 27 28
29 30 31 30 30 30 30 31 30 29 28 28 28 27 25 23 22 22 20 20 21 22 23 24 25 27 30 32 32 33 33 34 35 37 38 37 35 33 33 32 30 31 30
30 30 30 29 29 29 30 30 30 28 28 28 29 27 24 23 20 19 20 20 20 21 23 25 26 27 28 29 30 31 32 34 35 37 38 40 40 40 39 38 37 34 22
30 30 29 29 30 29 29 30 30 29 28 27 30 26 25 21 18 17 20 20 22 22 25 25 26 26 28 29 29 30 31 33 34 36 36 37 37 40 43 44 41 39 34
29 30 29 30 29 29 29 29 28 29 28 30 26 26 20 20 17 20 18 21 23 25 26 25 26 27 26 27 27 30 33 35 36 38 42 37 35 34 36 40 44 44 39
29 28 29 29 30 29 29 28 28 28 27 26 25 21 22 18 19 19 19 22 26 27 26 25 26 27 27 27 28 29 33 35 37 40 45 30 30 27 28 35 39 41 39
27 27 28 27 26 26 28 28 27 27 26 24 23 20 19 19 27 20 22 25 26 28 25 26 26 26 26 27 27 29 34 35 38 41 43 40 25 23 23 31 34 34 35
27 26 25 24 23 20 18 22 23 25 24 23 21 19 19 20 22 25 22 28 26 28 23 25 25 24 26 27 27 28 33 35 36 38 41 43 25 6 21 19 32 32 31
26 24 23 22 20 17 13 15 19 23 23 23 22 21 22 21 16 17 28 29 24 25 23 21 21 22 23 24 26 29 33 34 34 36 39 39 36 26 29 28 29 19 19
28 23 20 20 19 18 18 17 17 19 25 25 24 25 22 22 23 21 20 22 24 22 24 17 18 19 20 22 24 28 31 32 33 34 36 37 33 27 21 15 11 11 7
27 23 19 19 18 19 18 18 17 17 24 26 27 26 24 23 24 24 22 23 26 23 17 15 14 15 17 20 20 25 24 28 29 31 34 33 29 21 16 11 9 10 11
27 23 19 18 16 17 17 16 17 18 21 26 26 26 27 26 25 23 21 24 28 19 17 15 14 13 14 16 18 18 18 22 24 26 29 31 28 21 16 16 14 14 12
26 24 20 17 17 16 14 15 17 18 20 24 25 27 27 25 25 24 23 21 23 23 26 19 17 13 16 15 18 17 17 17 19 22 25 26 26 23 20 19 15 16 14
27 25 22 19 19 18 17 16 16 15 20 23 25 25 25 24 24 24 24 22 19 20 20 20 21 22 20 19 19 19 19 18 21 20 21 22 22 21 21 19 17 17 15
28 28 24 21 18 18 18 19 18 17 15 23 25 23 23 22 23 24 25 24 22 21 25 27 25 24 22 20 20 19 19 18 19 21 20 20 19 19 18 17 16 17 17
30 30 28 25 21 19 18 18 19 19 18 20 24 25 24 23 23 23 24 23 22 21 24 29 27 25 23 22 22 21 19 18 18 20 20 19 18 16 16 16 16 17 16
34 33 32 29 27 23 21 19 18 19 20 21 22 23 24 24 25 25 25 24 23 22 22 24 27 25 25 24 24 22 20 19 18 18 18 18 16 15 15 15 15 16 17
36 37 35 35 31 28 26 24 23 21 21 22 22 22 23 22 23 24 24 24 24 24 23 24 26 27 27 25 24 24 23 20 20 19 19 18 16 15 15 15 15 16 16
36 37 37 36 33 30 28 26 25 24 25 26 25 25 24 24 24 25 25 26 25 26 26 27 28 28 28 27 26 24 25 24 22 20 20 18 17 17 17 18 17 16 14
37 37 37 37 35 32 29 27 25 27 27 28 29 28 27 27 27 26 25 25 25 26 28 28 29 29 29 28 26 25 25 25 24 20 21 20 19 18 19 19 18 15 14
36 36 36 35 35 34 32 30 26 24 24 25 25 26 26 25 24 25 25 25 25 25 25 28 30 29 30 27 26 26 25 24 24 22 22 23 21 21 19 20 18 14 17
36 36 35 34 34 34 33 31 29 27 26 26 26 26 27 28 26 25 25 26 25 25 24 25 26 28 28 27 25 26 25 24 24 24 22 26 22 22 21 20 18 17 18
37 36 36 35 35 34 32 31 29 28 28 28 27 27 27 28 27 25 26 28 28 27 26 25 26 27 27 26 24 23 25 26 27 26 22 25 24 24 22 22 19 17 18
36 36 35 34 33 33 32 32 30 29 30 30 30 30 29 29 29 28 28 29 31 31 28 27 27 27 26 25 22 23 25 27 27 29 23 25 24 24 25 22 20 20 21
Wind_Direction
349 347 345 342 340 337 334 331 330 328 328 327 325 321 319 317 315 314 313 313 313 312 312 311 310 309 307 306 305 303 302 300 297 292 287 285 284 284 283 281 281 282 282
348 346 343 341 339 337 335 333 331 331 331 332 329 328 324 321 320 319 319 319 320 321 320 317 312 308 306 304 303 301 300 299 297 294 290 286 282 281 280 278 276 275 276
347 344 341 341 340 338 337 336 335 334 334 334 332 331 329 326 323 323 324 326 328 331 333 331 324 316 309 307 305 304 301 300 298 296 295 290 284 280 276 275 273 268 269
347 345 344 344 343 341 340 339 338 337 336 335 334 333 333 334 333 332 333 333 334 335 336 337 337 331 321 316 314 313 311 308 304 300 296 293 288 284 279 279 271 259 264
349 348 347 347 346 345 344 342 340 341 339 337 335 335 337 336 338 341 340 341 344 345 342 337 335 334 331 327 324 322 319 314 310 306 301 295 290 285 280 278 276 276 267
350 350 350 349 347 346 344 342 341 340 338 338 332 336 338 344 349 345 346 352 349 348 341 341 338 339 336 336 335 331 326 323 319 313 308 303 297 289 281 275 273 274 273
349 349 350 349 349 348 344 342 342 337 336 334 341 340 352 351 359 344 355 357 341 339 338 341 343 344 346 347 348 341 323 320 321 319 309 307 302 296 287 277 270 268 270
347 349 349 350 351 351 348 342 336 331 334 340 346 352 341 354 344 353 340 340 335 338 342 346 346 347 347 350 352 355 338 329 325 327 323 313 305 298 292 282 273 266 265
346 347 350 352 356 360 355 346 332 325 328 340 345 353 354 347 310 325 333 332 333 337 347 348 349 349 347 347 353 352 343 339 333 334 336 333 316 304 293 283 274 267 263
344 347 351 356 2 13 19 13 355 329 330 341 340 348 353 339 330 307 338 320 334 338 351 352 353 354 351 349 355 355 349 350 348 336 341 354 354 344 303 289 271 265 263
341 345 352 356 2 14 26 25 14 347 336 324 329 337 322 341 2 359 297 306 349 352 355 4 3 5 2 1 359 355 348 353 0 358 354 2 355 351 306 219 246 274 268
336 343 351 354 357 2 5 10 11 358 313 296 316 306 328 335 335 344 352 352 350 356 350 14 15 18 19 13 9 358 350 356 359 5 0 359 359 1 331 81 48 55 38
333 340 348 350 353 356 357 359 0 358 329 313 308 309 321 325 332 332 344 345 339 350 7 17 29 32 30 23 23 14 18 7 13 10 10 1 356 352 357 354 334 349 4
331 337 342 346 350 353 355 355 353 348 337 317 314 314 313 320 324 333 345 342 334 353 0 8 18 30 32 29 29 33 36 29 24 23 20 10 5 354 339 348 353 359 360
329 334 337 340 341 344 352 353 347 341 334 323 318 314 315 323 326 329 335 343 338 341 335 358 3 20 11 19 20 25 30 36 35 28 23 20 7 356 354 8 358 7 348
328 330 334 338 334 334 338 341 342 344 329 320 316 319 321 325 327 328 329 335 338 332 335 343 345 345 351 357 3 9 16 23 22 28 30 26 24 22 11 360 353 352 350
327 326 330 332 332 330 329 329 330 332 333 321 315 320 322 326 325 327 325 326 329 327 321 321 328 335 340 347 352 358 4 10 14 15 20 25 28 26 24 21 13 360 348
321 321 323 325 326 325 324 322 321 322 322 321 317 316 319 321 323 324 324 325 325 325 320 316 320 325 330 334 339 344 351 359 4 4 7 14 17 24 26 21 16 8 2
316 317 318 319 319 319 318 317 315 315 315 315 315 315 316 317 317 317 319 320 321 321 319 317 319 323 324 326 328 331 334 339 346 351 357 1 9 14 15 16 14 3 358
314 313 315 315 316 315 313 312 311 310 310 311 311 312 313 313 314 316 317 317 317 317 317 316 316 316 318 320 321 321 322 328 330 335 339 344 348 355 359 0 359 356 354
316 316 314 315 316 315 312 311 309 307 307 307 307 306 307 308 309 310 312 313 313 313 313 313 312 314 314 316 316 319 317 319 321 323 324 327 330 332 335 338 341 344 348
317 317 315 314 314 315 314 312 310 309 307 306 305 305 305 305 305 305 306 307 308 308 309 310 310 310 311 312 313 313 313 314 315 320 318 318 320 320 322 325 329 334 338
320 320 319 318 315 314 314 313 313 312 311 310 309 308 308 307 305 305 304 304 304 304 305 308 307 308 309 310 311 309 307 308 308 313 314 312 314 311 313 317 320 324 327
320 319 320 319 317 316 316 315 315 314 313 311 310 310 310 309 308 306 305 304 302 302 302 304 304 307 307 309 308 309 308 307 308 308 310 307 311 309 311 312 313 316 321
319 318 319 317 318 318 320 319 318 317 315 313 313 312 311 311 310 306 305 303 303 301 301 299 302 304 305 305 304 305 303 303 303 304 305 305 307 307 308 308 310 311 316
320 320 320 321 322 322 320 319 319 319 317 315 315 314 313 312 311 308 303 303 302 302 301 299 300 301 302 302 300 299 301 298 300 303 304 301 304 306 306 309 307 307 311